Home > Weather > Derby > Past weeks

Flag for United Kingdom Past Weather in Derby, England, United Kingdom — Yesterday and Last 2 Weeks

Now
59 °F

Rain. Passing clouds.


Feels Like: 58 °F
Forecast: 52 / 69 °F
Wind: 8 mph from East

Location: East Midlands

Current Time: Aug 25, 2016 at 5:40:03 AM

Latest Report: Aug 25, 2016 at 5:20 AM


Visibility: 1 mi

Pressure: 30.07 "Hg

Humidity: 100%

Dew Point: 59 °F

Location of DerbyLocation

Past Weather in Derby — Graph

°F

Derby Temperature Yesterday

Maximum temperature yesterday: 79 °F (at 3:50 PM)
Minimum temperature yesterday: 57 °F (at 6:20 AM)
Average temperature yesterday: 68 °F

High & Low Weather Summary for the Past Weeks

 TemperatureHumidityPressure
High84 °F (Aug 23, 3:50 PM)100% (Aug 17, 4:50 AM)30.33 "Hg (Aug 17, 4:50 AM)
Low48 °F (Aug 15, 6:20 AM)39% (Aug 17, 5:50 PM)29.53 "Hg (Aug 20, 6:50 AM)
Average63 °F76%30.05 "Hg
* Reported Aug 10 4:20 AM — Aug 25 4:20 AM, Derby, Weather by CustomWeather, © 2016

Note: Actual official high and low records may vary slightly from our data, if they occured in-between our weather recording intervals... More about our weather records

Advertising

Derby Weather History for the Previous 24 Hours

Scroll right to see more
 ConditionsComfort  
Time TempWeatherWind HumidityBarometerVisibility
4:20 AM
Thu, Aug 25
59 °FRain. Passing clouds.5 mph100%30.07 "Hg4 mi
3:50 AM61 °FRain. Passing clouds.5 mph94%30.09 "Hg4 mi
3:20 AM61 °FRain. Clear.2 mph88%30.09 "Hg5 mi
2:50 AM61 °FLight rain. Passing clouds.5 mph88%30.07 "HgN/A
2:20 AM61 °FClear.5 mph88%30.07 "Hg10 mi
1:50 AM61 °FClear.6 mph88%30.07 "Hg10 mi
1:20 AM61 °FClear.7 mph88%30.07 "Hg10 mi
12:50 AM61 °FClear.7 mph88%30.07 "Hg10 mi
12:20 AM61 °FClear.7 mph88%30.09 "Hg10 mi
11:50 PM
Wed, Aug 24
61 °FClear.7 mph88%30.09 "Hg10 mi
11:20 PM63 °FClear.7 mph88%30.09 "Hg10 mi
10:50 PM63 °FClear.8 mph83%30.09 "Hg10 mi
10:20 PM63 °FClear.8 mph88%30.12 "Hg10 mi
9:50 PM64 °FPassing clouds.9 mph88%30.09 "HgN/A
9:20 PM64 °FLight rain. Passing clouds.10 mph88%30.09 "HgN/A
8:50 PM68 °FPassing clouds.10 mph78%30.09 "HgN/A
8:20 PM68 °FPassing clouds.7 mph83%30.09 "HgN/A
7:50 PM68 °FSunny.8 mph78%30.09 "Hg10 mi
7:20 PM70 °FSunny.7 mph69%30.09 "Hg10 mi
6:50 PM70 °FSunny.8 mph69%30.09 "Hg10 mi
6:20 PM70 °FScattered clouds.17 mph73%30.09 "HgN/A
5:50 PM73 °FSunny.13 mph65%30.09 "Hg10 mi
5:20 PM77 °FSunny.3 mph57%30.07 "Hg10 mi
4:50 PM77 °FPassing clouds.5 mph54%30.09 "HgN/A
4:20 PM77 °FPassing clouds.5 mph54%30.09 "HgN/A
3:50 PM79 °FPassing clouds.6 mph51%30.09 "HgN/A
3:20 PM77 °FPassing clouds.6 mph54%30.09 "HgN/A
2:50 PM77 °FPassing clouds.6 mph54%30.09 "HgN/A
2:20 PM77 °FPassing clouds.7 mph54%30.09 "HgN/A
1:50 PM75 °FPassing clouds.7 mph57%30.09 "HgN/A
1:20 PM75 °FSunny.5 mph57%30.09 "Hg10 mi
12:50 PM75 °FPassing clouds.7 mph57%30.09 "HgN/A
12:20 PM73 °FPassing clouds.7 mph61%30.09 "HgN/A
11:50 AM72 °FPassing clouds.7 mph65%30.09 "HgN/A
11:20 AM72 °FPassing clouds.7 mph61%30.09 "HgN/A
10:50 AM68 °FPassing clouds.8 mph69%30.12 "HgN/A
10:20 AM68 °FPassing clouds.8 mph69%30.12 "HgN/A
9:50 AM68 °FPassing clouds.8 mph69%30.12 "HgN/A
9:20 AM66 °FPassing clouds.8 mph73%30.12 "HgN/A
8:50 AM64 °FSunny.8 mph78%30.12 "Hg10 mi
8:20 AM63 °FSunny.7 mph83%30.12 "Hg10 mi
7:50 AM61 °FSunny.6 mph88%30.12 "Hg10 mi
7:20 AM59 °FSunny.6 mph88%30.09 "Hg10 mi
6:50 AM59 °FClear.7 mph88%30.09 "Hg10 mi
6:20 AM57 °FClear.8 mph94%30.09 "Hg10 mi
5:50 AM59 °FClear.8 mph88%30.07 "Hg10 mi
5:20 AM59 °FClear.9 mph94%30.07 "Hg10 mi
Weather by CustomWeather, © 2016

See weather overviewHow to use our weather pages